Regional Weather Roundup
Issued by NWS

Home | Current Version | Previous Version | Graphics & Text | Print | Product List | Glossary On
Versions: 1 2 3 4 5 6 7 8 9 10 11 12 13 14 15 16 17 18 19 20 21 22 23 24 25 26 27 28 29 30 31 32 33 34 35 36 37 38 39 40 41 42 43 44 45 46 47 48 49 50
631
ASUS43 KMKX 251811
RWRWI

WISCONSIN REGIONAL WEATHER ROUNDUP
NATIONAL WEATHER SERVICE MILWAUKEE/SULLIVAN WI
100 PM CDT MON SEP 25 2017

NOTE: "FAIR" INDICATES FEW OR NO CLOUDS BELOW 12,000 FEET WITH NO
SIGNIFICANT WEATHER AND/OR OBSTRUCTIONS TO VISIBILITY.

WIZ001-002-006>008-014>016-023>028-251900-
NORTHWEST WISCONSIN

CITY           SKY/WX    TMP DP  RH WIND       PRES   REMARKS
SUPERIOR ARPT  CLOUDY    58  53  82 CALM      30.01F
6HR MIN TEMP:  56; 6HR MAX TEMP:  59; 6HR PCP:  0.01;

ASHLAND        CLOUDY    64  57  78 NW3       30.01S
6HR MIN TEMP:  61; 6HR MAX TEMP:  66; 6HR PCP:  0.02;

HAYWARD        CLOUDY    64  60  87 NE7       30.00F
6HR MIN TEMP:  62; 6HR MAX TEMP:  66; 6HR PCP:  0.07;

SIREN          CLOUDY    58  56  92 N3        30.00S
6HR MIN TEMP:  57; 6HR MAX TEMP:  60; 6HR PCP:  0.10;

CUMBERLAND     CLOUDY    64  59  82 N7        29.98F
RICE LAKE      CLOUDY    69  63  82 N5        29.99S
6HR MIN TEMP:  65; 6HR MAX TEMP:  69;

CHETEK         CLOUDY    73  66  78 CALM      29.95F
6HR MIN TEMP:  67; 6HR MAX TEMP:  74;

LADYSMITH      MOSUNNY   79  64  59 CALM      29.97F HX  80
6HR MIN TEMP:  62; 6HR MAX TEMP:  79;

EAU CLAIRE     MOSUNNY   80  65  59 MISG      29.92F HX  82
6HR MIN TEMP:  63; 6HR MAX TEMP:  81;

MENOMONIE      PTSUNNY   77  66  68 CALM      29.93F
6HR MIN TEMP:  66; 6HR MAX TEMP:  78;

NEW RICHMOND   CLOUDY    63  60  90 NW7       29.98F
6HR MIN TEMP:  61; 6HR MAX TEMP:  63; 6HR PCP:  0.01;

OSCEOLA        CLOUDY    61  61 100 NW6       30.02S
6HR MIN TEMP:  59; 6HR MAX TEMP:  61; 6HR PCP:  0.02;

$$

WIZ003>005-009-010-017-018-251900-
NORTH CENTRAL WISCONSIN

CITY           SKY/WX    TMP DP  RH WIND       PRES   REMARKS
MANITOWISH WTR NOT AVBL
ARBOR VITAE    HAZE      77  65  65 CALM      29.98F VSB 1/2
6HR MIN TEMP:  62; 6HR MAX TEMP:  78;

WOODRUFF       HAZE      77  65  65 CALM      29.98F VSB 1/2
6HR MIN TEMP:  62; 6HR MAX TEMP:  78;

RHINELANDER    MOSUNNY   80  65  59 S5        29.99F HX  82
6HR MIN TEMP:  60; 6HR MAX TEMP:  81;

EAGLE RIVER    MOSUNNY   80  61  52 CALM      29.98F HX  81
6HR MIN TEMP:  58; 6HR MAX TEMP:  80;

LAND O LAKES   PTSUNNY   79  61  54 SW3       30.00F HX  80
6HR MIN TEMP:  59; 6HR MAX TEMP:  79;

PHILLIPS       CLOUDY    77  65  66 CALM      29.97F
6HR MIN TEMP:  61; 6HR MAX TEMP:  78;

TOMAHAWK       MOSUNNY   80  63  55 CALM      29.98F HX  82
6HR MIN TEMP:  56; 6HR MAX TEMP:  81;

MEDFORD        CLOUDY    80  65  60 SE7       29.96F HX  81
6HR MIN TEMP:  56; 6HR MAX TEMP:  80;

MERRILL        MOSUNNY   82  65  57 CALM      29.97F HX  83
6HR MIN TEMP:  55; 6HR MAX TEMP:  82;

$$

WIZ029-030-035-036-043>047-251900-
CENTRAL WISCONSIN

CITY           SKY/WX    TMP DP  RH WIND       PRES   REMARKS
WAUSAU         MOSUNNY   83  63  50 S5        29.95F HX  84
6HR MIN TEMP:  60; 6HR MAX TEMP:  84;

MOSINEE        MOSUNNY   82  64  54 S8        29.98F HX  84
MARSHFIELD     CLOUDY    84  63  49 SW5       29.95F HX  85
6HR MIN TEMP:  61; 6HR MAX TEMP:  84;

STEVENS POINT  SUNNY     85  63  47 S8        29.96F HX  85
6HR MIN TEMP:  59; 6HR MAX TEMP:  85;

WAUPACA        SUNNY     88  64  43 S8        29.96F HX  89
6HR MIN TEMP:  63; 6HR MAX TEMP:  88;

WAUTOMA        SUNNY     87  65  47 SE7       29.95  HX  89
WISC RAPIDS    SUNNY     88  65  46 SW9       29.96F HX  90
6HR MIN TEMP:  62; 6HR MAX TEMP:  88;

CAMP DOUGLAS   PTSUNNY   88  66  48 S8G18     29.94F HX  90
$$

WIZ011>013-019>022-031-037>040-048>050-251900-
NORTHEAST WISCONSIN

CITY           SKY/WX    TMP DP  RH WIND       PRES   REMARKS
ANTIGO         SUNNY     83  64  53 SW6       29.99S HX  84
6HR MIN TEMP:  60; 6HR MAX TEMP:  83;

SHAWANO        SUNNY     87  64  45 S3        29.95F HX  89
OCONTO         SUNNY     83  67  57 SE3       29.96F HX  85
6HR MIN TEMP:  59; 6HR MAX TEMP:  83;

STURGEON BAY   PTSUNNY   82  69  64 E7        29.99F HX  85
6HR MIN TEMP:  68; 6HR MAX TEMP:  84;

GREEN BAY      SUNNY     88  63  43 SW6       29.96F HX  89
6HR MIN TEMP:  65; 6HR MAX TEMP:  88;

MANITOWOC      SUNNY     79  66  64 SE9       29.99F HX  81
6HR MIN TEMP:  61; 6HR MAX TEMP:  79;

APPLETON       MOSUNNY   84  63  48 SE7       29.96F HX  85
CLINTONVILLE   SUNNY     88  61  40 SW3       29.96F HX  88
OSHKOSH        SUNNY     86  66  51 S6        29.96F HX  88
6HR MIN TEMP:  67; 6HR MAX TEMP:  86;

$$

WIZ032>034-041-042-053>061-251900-
SOUTHWEST WISCONSIN

CITY           SKY/WX    TMP DP  RH WIND       PRES   REMARKS
LA CROSSE      MOSUNNY   86  66  51 SE7       29.91F HX  88
6HR MIN TEMP:  67; 6HR MAX TEMP:  86;

SPARTA         MOSUNNY   86  65  50 SW5       29.94F HX  87
6HR MIN TEMP:  57; 6HR MAX TEMP:  87;

VIROQUA        MOSUNNY   85  66  53 S8        29.95F HX  87
6HR MIN TEMP:  63; 6HR MAX TEMP:  85;

BOSCOBEL       MOSUNNY   90  64  42 S8        29.93F HX  91
6HR MIN TEMP:  59; 6HR MAX TEMP:  91;

PRAIRIE DU CHI SUNNY     89  59  36 S9        29.91F HX  88
6HR MIN TEMP:  64; 6HR MAX TEMP:  89;

PLATTEVILLE    MOSUNNY   89  62  40 S12       29.96F HX  89
6HR MIN TEMP:  64; 6HR MAX TEMP:  90;

$$

WIZ056-057-062-063-064-067-068-251900-
SOUTH CENTRAL WISCONSIN

CITY           SKY/WX    TMP DP  RH WIND       PRES   REMARKS
REEDSBURG      SUNNY     87  65  47 S7        29.95F HX  89
6HR MIN TEMP:  61; 6HR MAX TEMP:  88;

BARABOO/DELLS  SUNNY     86  61  42 S6        29.96F HX  86
6HR MIN TEMP:  64; 6HR MAX TEMP:  87;

LONE ROCK      MOSUNNY   87  67  51 VRB7      29.93F HX  90
6HR MIN TEMP:  58; 6HR MAX TEMP:  89;

MINERAL POINT  MOSUNNY   90  59  35 S8        29.96F HX  89
MADISON        MOSUNNY   87  64  46 S9        29.96F HX  88
6HR MIN TEMP:  63; 6HR MAX TEMP:  87;

MIDDLETON      PTSUNNY   90  62  38 S8        29.97F HX  90
6HR MIN TEMP:  62; 6HR MAX TEMP:  90;

WATERTOWN      SUNNY     88  64  43 SW5       29.97F HX  89
6HR MIN TEMP:  62; 6HR MAX TEMP:  88;

MONROE         SUNNY     88  57  35 S6        29.97F HX  86
JANESVILLE     MOSUNNY   90  57  33 S5        29.97F HX  88
$$

WIZ051-052-058>065-066-070>072-251900-
SOUTHEAST WISCONSIN

CITY           SKY/WX    TMP DP  RH WIND       PRES   REMARKS
MILWAUKEE      MOSUNNY   86  66  51 SE12      29.97F HX  88
6HR MIN TEMP:  70; 6HR MAX TEMP:  86;

WAUKESHA       MOSUNNY   88  55  33 CALM      29.99F HX  86
MILWAUKEE/TIMM SUNNY     90  52  27 W9        29.98F HX  87
RACINE         SUNNY     84  66  54 S10       30.00F HX  86
6HR MIN TEMP:  68; 6HR MAX TEMP:  84;

BURLINGTON     SUNNY     92  59  32 S5        29.97F HX  91
6HR MIN TEMP:  57; 6HR MAX TEMP:  92;

KENOSHA        MOSUNNY   89  65  44 E13       29.98F HX  91
6HR MIN TEMP:  63; 6HR MAX TEMP:  92;

FOND DU LAC    SUNNY     87  62  43 SW8       29.97F HX  87
6HR MIN TEMP:  67; 6HR MAX TEMP:  87;

SHEBOYGAN      SUNNY     84  70  62 SE7       29.98F HX  88
6HR MIN TEMP:  62; 6HR MAX TEMP:  87;

WEST BEND        N/A     88  55  33 SE6       29.98F HX  86
JUNEAU         SUNNY     85  64  50 SE5       29.98F HX  86
6HR MIN TEMP:  64; 6HR MAX TEMP:  85;

$$

LSZ147-162-251900-
LAKE SUPERIOR

STATION/POSITION TIME  TEMP    WIND        PRES    WAVE
                       AIR SEA DIR/SP/G            HT/PER
                 (UTC) (F)     (DEG/KT/KT) (MB)    (FT/S)
W MID LAKE BUOY  1750   57 55  270/  6/  8 1015.2R   1/ 3
DEVILS ISLAND    1800   60     300/  8/  9 1015.9F
PORT WING        1540   65     280/  8/ 10 1016.6
SAXON HARBOR     1740   62     320/  7/  9 1015.6S
$$

LMZ867-665-643>646-251900-
LAKE MICHIGAN

STATION/POSITION TIME  TEMP    WIND        PRES    WAVE
                       AIR SEA DIR/SP/G            HT/PER
                 (UTC) (F)     (DEG/KT/KT) (MB)    (FT/S)
S GREEN BAY BUOY 1700   73 70  120/  2/  2 1015.1F
N MID LAKE BUOY  1750   69 67  190/ 10/ 12 1015.9F   1/ 4
NORTHPORT PIER   1



USA.gov is the U.S. government's official web portal to all federal, state and local government web resources and services.